DECAYED

DMSP 5D-2 F13 DEB, 23535 (Decayed)

Orbit data source: Space-Track

DMSP 5D-2 F13 DEB, 23535 was space debris in LEO originally from a launch on Fri, 24 Mar 1995 UTC launched from the Air Force Western Test Range (AFWTR). Debris objects in space refer to the collection of defunct objects orbiting the Earth. Examples of debris include non-operational satellites, rocket bodies, and fragments generated from explosions, collisions, or faulty payload assembly.

Not visible in the next 10 days
Identifier
23535, 1995-015C
Orbit
Decayed
Country
Flag of USUS
Related business
Manufacturer
Unknown
Mission
Decayed spacecraft
Bus & Motor
Unknown
Mass
Unknown
Launch date (UTC)
1995-03-24 (31 years ago)
Launch vehicle
Unknown
Launch site
Air Force Western Test Range (AFWTR)
Object type
Payload
Rocket body
Debris
Shape & HBR
Unknown shape, 0.2 m
Radar Cross Section
Small (<0.1 m²)

Expand to show TLE details & history
Last TLE update: 8 months ago

TLE from 8 months ago
0 DMSP 5D-2 F13 DEB
1 23535U 95015C   25202.20341349  .12904694  30783-5  66192-2 0  9992
2 23535  98.5479 165.2729 0020154 204.7526 155.2794 16.19928531593300
Epoch: 2025-07-21T04:52Z
TLE epoch observation values (Epoch: 2025-07-21T04:52:54.925Z)
Latitude
-0.00005°
Longitude
152.82887°
Altitude
235.02 km
Speed
7.759 km/s
True Right ascension
11h 01m 05s
True Declination
0° 00' 00"
Sunlit
Object was in daylight at epoch
Visualization orbit readout
Latitude
Unknown
Longitude
Unknown
Altitude
Unknown
Speed
Unknown
Apparent Right ascension
Unknown
Apparent Declination
Unknown
Sunlit
N/A
Visualization observer readout
Local Sidereal Time
04:34:46
Azimuth
Unknown
Elevation
Unknown
Doppler factor
Unknown
Orbital elements
Apogee altitude
229.926 km
Perigee altitude
203.344 km
Semi-major axis
6,594.772 km
Eccentricity
0.00202
Inclination
98.5479°
RAAN
165.2729°
Arg. of periapsis
204.7526°
True anomaly
155.37576°
Mean anomaly
155.2794°
Eccentric anomaly
155.3276°
Mean motion
4.05269 °/min
Orbital period
88.83 mins
BSTAR
0.0066192
Loading maneuver chart data...
Computing Atmospheric mass density...

Documentation

Showing up to 5 results
|